Date String (YYYY-MM-DD hh:mm:ss) UTC,Instrument flags,absolute air pressure of the measurement (hPa),sample flow rate (lpm),inlet stack bypass flow (lpm),air temperature of the measurement (°C),ambient temperature measured by the external sensor (°C),aerosol sample conditioner tube jacket temperature (°C),OPC LED temperature (°C),internal box temperature (°C),relative humidity of the measurement (%),span deviation,mass concentration of particles derived from Lorenz-Mie calculation of OPC scattering (μg/m³),mass concentration of particles derived from Lorenz-Mie calculation of OPC scattering (μg/m³),mass concentration of particles derived from Lorenz-Mie calculation of OPC scattering (μg/m³)
DateTimeUTC,F1_M11,P_M11,Q1_M11,Q2_M11,T1_M11,T2_M11,T3_M11,T4_M11,T5_M11,U1_M11,ZSPAN_M11,X2_M11,X0_M11,X1_M11
2023-06-13 08:00:00,SystemResetWarning,0829.7,5.00,000.00,030.0,028.3,000.0,038.6,031.5,24.2,0000.0,0002.89,0005.74,0002.19
2023-06-13 08:01:00,SystemResetWarning,0829.7,5.01,000.00,030.0,028.3,000.0,038.6,031.5,24.3,0000.0,0002.78,0005.72,0002.13
2023-06-13 08:02:00,SystemResetWarning,0829.7,5.00,000.00,030.0,028.3,000.0,038.6,031.5,24.4,0000.0,0002.67,0005.96,0002.07
2023-06-13 08:03:00,SystemResetWarning,0829.7,5.00,000.00,030.0,028.3,000.0,038.6,031.5,24.5,0000.0,0002.61,0005.86,0002.04
2023-06-13 08:04:00,SystemResetWarning,0829.7,5.00,000.00,030.0,028.3,000.0,038.6,031.5,24.5,0000.0,0002.58,0005.77,0002.03
2023-06-13 08:05:00,SystemResetWarning,0829.7,5.00,000.00,030.0,028.3,000.0,038.6,031.5,24.5,0000.0,0002.58,0005.83,0002.03
2023-06-13 08:06:00,SystemResetWarning,0829.6,5.00,000.00,030.0,028.3,000.0,038.6,031.5,24.7,0000.0,0002.59,0005.84,0002.05
2023-06-13 08:07:00,SystemResetWarning,0829.7,5.01,000.00,030.0,028.3,000.0,038.6,031.5,24.6,0000.0,0002.57,0005.76,0002.05
2023-06-13 08:08:00,SystemResetWarning,0829.7,5.00,000.00,030.0,028.3,000.0,038.6,031.5,24.5,0000.0,0002.57,0005.71,0002.07
2023-06-13 08:09:00,SystemResetWarning,0829.7,5.01,000.00,030.0,028.3,000.0,038.6,031.5,24.5,0000.0,0002.65,0005.90,0002.09
2023-06-13 08:10:00,SystemResetWarning,0829.7,5.00,000.00,030.0,028.3,000.0,038.6,031.5,24.4,0000.0,0002.69,0005.88,0002.11
2023-06-13 08:11:00,SystemResetWarning,0829.7,5.00,000.00,030.0,028.3,000.0,038.6,031.5,24.4,0000.0,0002.69,0004.88,0002.12
2023-06-13 08:12:00,SystemResetWarning,0829.7,5.00,000.00,030.0,028.3,000.0,038.6,031.5,24.3,0000.0,0002.76,0004.66,0002.13
2023-06-13 08:13:00,SystemResetWarning,0829.7,5.00,000.00,030.0,028.3,000.0,038.6,031.5,24.3,0000.0,0002.78,0004.37,0002.13
2023-06-13 08:14:00,SystemResetWarning,0829.7,5.02,000.00,030.0,028.3,000.0,038.6,031.5,24.2,0000.0,0002.78,0004.41,0002.12
2023-06-13 08:15:00,SystemResetWarning,0829.7,5.00,000.00,030.0,028.3,000.0,038.6,031.5,24.3,0000.0,0002.78,0004.41,0002.13
2023-06-13 08:16:00,SystemResetWarning,0829.7,4.99,000.00,030.0,028.3,000.0,038.6,031.5,24.3,0000.0,0002.80,0004.40,0002.13
2023-06-13 08:17:00,SystemResetWarning,0829.7,4.98,000.00,030.0,028.3,000.0,038.6,031.5,24.3,0000.0,0002.85,0004.62,0002.12
2023-06-13 08:18:00,SystemResetWarning,0829.7,5.01,000.00,030.0,028.3,000.0,038.6,031.4,24.6,0000.0,0002.86,0004.66,0002.13
2023-06-13 08:19:00,SystemResetWarning,0829.7,5.01,000.00,030.0,028.3,000.0,038.6,031.4,24.8,0000.0,0002.91,0004.78,0002.15
2023-06-13 08:20:00,SystemResetWarning,0829.6,5.00,000.00,030.0,028.3,000.0,038.6,031.5,24.9,0000.0,0002.86,0005.69,0002.16
2023-06-13 08:21:00,SystemResetWarning,0829.6,5.00,000.00,030.0,028.3,000.0,038.6,031.4,24.9,0000.0,0002.88,0005.76,0002.18
2023-06-13 08:22:00,SystemResetWarning,0829.7,5.00,000.00,030.0,028.3,000.0,038.6,031.4,24.9,0000.0,0002.87,0005.85,0002.19
2023-06-13 08:23:00,SystemResetWarning,0829.6,5.00,000.00,030.0,028.3,000.0,038.6,031.4,24.8,0000.0,0002.90,0005.96,0002.22
2023-06-13 08:24:00,SystemResetWarning,0829.7,5.00,000.00,030.0,028.3,000.0,038.6,031.4,24.9,0000.0,0002.93,0006.00,0002.24
2023-06-13 08:25:00,SystemResetWarning,0829.7,5.00,000.00,030.0,028.3,000.0,038.6,031.4,25.2,0000.0,0002.96,0006.11,0002.26
2023-06-13 08:26:00,SystemResetWarning,0829.6,5.00,000.00,030.0,028.3,000.0,038.6,031.4,25.1,0000.0,0003.03,0006.31,0002.28
2023-06-13 08:27:00,SystemResetWarning,0829.7,5.00,000.00,030.0,028.3,000.0,038.6,031.4,25.1,0000.0,0003.03,0006.31,0002.30
2023-06-13 08:28:00,SystemResetWarning,0829.6,5.00,000.00,030.0,028.3,000.0,038.6,031.5,25.1,0000.0,0002.98,0006.26,0002.32
2023-06-13 08:29:00,SystemResetWarning,0829.6,5.00,000.00,030.0,028.3,000.0,038.6,031.4,25.0,0000.0,0003.03,0006.62,0002.33
2023-06-13 08:30:00,SystemResetWarning,0829.6,5.00,000.00,030.0,028.3,000.0,038.6,031.4,24.9,0000.0,0003.06,0006.66,0002.36
2023-06-13 08:31:00,SystemResetWarning,0829.6,5.01,000.00,030.0,028.3,000.0,038.6,031.4,24.9,0000.0,0003.10,0005.75,0002.38
2023-06-13 08:32:00,SystemResetWarning,0829.6,5.00,000.00,030.0,028.3,000.0,038.6,031.4,24.9,0000.0,0003.12,0005.69,0002.38
2023-06-13 08:33:00,SystemResetWarning,0829.6,5.00,000.00,030.0,028.3,000.0,038.6,031.4,25.0,0000.0,0003.14,0005.63,0002.41
2023-06-13 08:34:00,SystemResetWarning,0829.6,4.99,000.00,030.0,028.3,000.0,038.6,031.4,25.1,0000.0,0003.12,0005.44,0002.43
2023-06-13 08:35:00,SystemResetWarning,0829.6,4.99,000.00,030.0,028.3,000.0,038.6,031.4,25.2,0000.0,0003.14,0005.46,0002.46
2023-06-13 08:36:00,SystemResetWarning,0829.6,5.00,000.00,030.0,028.3,000.0,038.6,031.4,25.3,0000.0,0003.14,0005.37,0002.48
2023-06-13 08:37:00,SystemResetWarning,0829.6,5.01,000.00,030.0,028.3,000.0,038.6,031.4,25.4,0000.0,0003.13,0005.32,0002.49
2023-06-13 08:38:00,SystemResetWarning,0829.6,5.01,000.00,030.0,028.3,000.0,038.5,031.4,25.4,0000.0,0003.14,0005.31,0002.51
2023-06-13 08:39:00,SystemResetWarning,0829.7,5.01,000.00,030.0,028.3,000.0,038.5,031.4,25.3,0000.0,0003.15,0005.39,0002.52
2023-06-13 08:40:00,SystemResetWarning,0829.7,4.99,000.00,030.0,028.3,000.0,038.5,031.4,25.3,0000.0,0003.17,0005.20,0002.53
2023-06-13 08:41:00,SystemResetWarning,0829.7,4.99,000.00,030.0,028.2,000.0,038.5,031.4,25.2,0000.0,0003.15,0005.18,0002.51
2023-06-13 08:42:00,SystemResetWarning,0829.7,5.00,000.00,030.0,028.2,000.0,038.5,031.4,25.1,0000.0,0003.15,0005.16,0002.51
2023-06-13 08:43:00,SystemResetWarning,0829.7,5.01,000.00,030.0,028.2,000.0,038.5,031.4,25.1,0000.0,0003.15,0005.12,0002.54
2023-06-13 08:44:00,SystemResetWarning,0829.6,5.00,000.00,030.0,028.2,000.0,038.5,031.4,25.1,0000.0,0003.16,0005.13,0002.55
2023-06-13 08:45:00,SystemResetWarning,0829.7,4.98,000.00,030.0,028.2,000.0,038.5,031.4,25.1,0000.0,0003.17,0005.18,0002.56
2023-06-13 08:46:00,SystemResetWarning,0829.6,5.00,000.00,030.0,028.2,000.0,038.5,031.4,25.0,0000.0,0003.17,0005.84,0002.55
2023-06-13 08:47:00,SystemResetWarning,0829.7,5.00,000.00,030.0,028.2,000.0,038.5,031.4,25.0,0000.0,0003.18,0005.93,0002.57
2023-06-13 08:48:00,SystemResetWarning,0829.7,5.01,000.00,030.0,028.2,000.0,038.5,031.4,24.9,0000.0,0003.19,0005.95,0002.59
2023-06-13 08:49:00,SystemResetWarning,0829.7,5.01,000.00,030.0,028.2,000.0,038.5,031.4,24.8,0000.0,0003.20,0006.06,0002.59
2023-06-13 08:50:00,SystemResetWarning,0829.7,5.00,000.00,030.0,028.2,000.0,038.5,031.4,24.7,0000.0,0003.19,0005.93,0002.59
2023-06-13 08:51:00,SystemResetWarning,0829.7,4.99,000.00,030.0,028.2,000.0,038.5,031.3,24.6,0000.0,0003.16,0005.74,0002.60
2023-06-13 08:52:00,SystemResetWarning,0829.6,4.99,000.00,030.0,028.2,000.0,038.5,031.4,24.6,0000.0,0003.15,0005.62,0002.61
2023-06-13 08:53:00,SystemResetWarning,0829.6,5.00,000.00,030.0,028.2,000.0,038.5,031.4,24.6,0000.0,0003.15,0005.59,0002.63
2023-06-13 08:54:00,SystemResetWarning,0829.6,5.00,000.00,030.0,028.2,000.0,038.5,031.3,24.7,0000.0,0003.13,0005.60,0002.64
2023-06-13 08:55:00,SystemResetWarning,0829.7,5.01,000.00,029.9,028.2,000.0,038.5,031.3,24.7,0000.0,0003.13,0005.62,0002.66
2023-06-13 08:56:00,SystemResetWarning,0829.7,5.00,000.00,029.9,028.2,000.0,038.5,031.4,24.7,0000.0,0003.18,0005.76,0002.69
2023-06-13 08:57:00,SystemResetWarning,0829.6,5.00,000.00,029.9,028.2,000.0,038.5,031.4,24.8,0000.0,0003.19,0005.28,0002.73
2023-06-13 08:58:00,SystemResetWarning,0829.7,4.99,000.00,029.9,028.2,000.0,038.5,031.4,24.8,0000.0,0003.20,0004.91,0002.76
2023-06-13 08:59:00,SystemResetWarning,0829.6,4.99,000.00,029.9,028.2,000.0,038.5,031.4,24.8,0000.0,0003.23,0005.02,0002.80
